| time (UTC) | temp C | wind direction | speed KPH | gust KPH | rain 1hr cm | rain 24hr cm | rain mn cm | humidity % | barometer mb |
| 20260508091048 | 2 | 0.0 | 0.0 | 0.00 | 0.13 | 0.00 | 82 | 1009.2 | |
| 20260508090528 | 2 | 0.0 | 0.0 | 0.00 | 0.13 | 0.00 | 82 | 1009.2 | |
| 20260508090048 | 2 | 0.0 | 0.0 | 0.00 | 0.15 | 0.00 | 83 | 1009.2 | |
| 20260508085527 | 2 | 0.0 | 0.0 | 0.00 | 0.15 | 0.00 | 83 | 1009.1 | |
| 20260508085027 | 2 | 0.0 | 0.0 | 0.00 | 0.15 | 0.00 | 83 | 1009.1 | |
| 20260508084527 | 2 | 0.0 | 0.0 | 0.00 | 0.18 | 0.00 | 84 | 1009.1 | |
| 20260508084029 | 2 | 0.0 | 0.0 | 0.00 | 0.18 | 0.00 | 84 | 1009.1 | |
| 20260508083549 | 2 | 0.0 | 0.0 | 0.00 | 0.18 | 0.00 | 84 | 1009.1 | |
| 20260508083049 | 2 | 0.0 | 0.0 | 0.00 | 0.18 | 0.00 | 83 | 1009.0 | |
| 20260508082529 | 2 | 0.0 | 0.0 | 0.00 | 0.18 | 0.00 | 82 | 1008.9 | |
| 20260508082028 | 2 | 0.0 | 0.0 | 0.00 | 0.18 | 0.00 | 83 | 1008.8 | |
| 20260508081528 | 2 | 0.0 | 0.0 | 0.00 | 0.18 | 0.00 | 84 | 1008.8 | |
| 20260508081109 | 2 | 0.0 | 0.0 | 0.00 | 0.18 | 0.00 | 84 | 1008.7 | |
| 20260508080528 | 2 | 0.0 | 0.0 | 0.00 | 0.18 | 0.00 | 83 | 1008.6 | |
| 20260508080028 | 3 | 0.0 | 0.0 | 0.00 | 0.18 | 0.00 | 81 | 1008.5 | |
| 20260508075548 | 3 | 0.0 | 0.0 | 0.00 | 0.18 | 0.00 | 80 | 1008.4 | |
| 20260508075048 | 3 | 0.0 | 0.0 | 0.00 | 0.18 | 0.00 | 80 | 1008.4 | |
| 20260508074528 | 3 | 0.0 | 0.0 | 0.00 | 0.20 | 0.00 | 80 | 1008.2 | |
| 20260508074027 | 3 | 0.0 | 0.0 | 0.00 | 0.20 | 0.00 | 81 | 1008.0 | |
| 20260508073527 | 3 | 0.0 | 0.0 | 0.00 | 0.23 | 0.00 | 81 | 1007.9 | |
| 20260508073027 | 3 | 0.0 | 0.0 | 0.00 | 0.23 | 0.00 | 80 | 1007.8 | |
| 20260508072527 | 3 | 0.0 | 0.0 | 0.00 | 0.23 | 0.00 | 79 | 1007.8 | |
| 20260508072027 | 3 | 0.0 | 0.0 | 0.00 | 0.23 | 0.00 | 78 | 1007.7 | |
| 20260508071529 | 3 | 0.0 | 0.0 | 0.00 | 0.23 | 0.00 | 77 | 1007.7 | |
| 20260508071028 | 3 | 0.0 | 0.0 | 0.00 | 0.23 | 0.00 | 76 | 1007.7 | |
| 20260508070529 | 3 | 0.0 | 0.0 | 0.00 | 0.23 | 0.00 | 75 | 1007.7 | |
| 20260508070028 | 4 | 0.0 | 0.0 | 0.00 | 0.23 | 0.00 | 75 | 1007.7 | |
| 20260508065526 | 4 | 0.0 | 0.0 | 0.00 | 0.23 | 0.00 | 75 | 1007.7 | |
| 20260508065028 | 4 | 0.0 | 0.0 | 0.00 | 0.23 | 0.00 | 75 | 1007.8 | |
| 20260508064528 | 4 | 0.0 | 0.0 | 0.00 | 0.23 | 0.00 | 74 | 1007.8 | |
| 20260508064028 | 5 | 0.0 | 0.0 | 0.00 | 0.23 | 0.00 | 73 | 1007.7 | |
| 20260508063527 | 5 | 0.0 | 0.0 | 0.00 | 0.23 | 0.00 | 73 | 1007.7 | |
| 20260508063028 | 5 | 0.0 | 0.0 | 0.00 | 0.23 | 0.00 | 73 | 1007.7 | |
| 20260508062528 | 5 | 0.0 | 0.0 | 0.00 | 0.23 | 0.00 | 74 | 1007.7 | |
| 20260508062027 | 5 | 0.0 | 0.0 | 0.00 | 0.23 | 0.00 | 71 | 1007.7 | |
| 20260508061527 | 5 | 0.0 | 0.0 | 0.00 | 0.23 | 0.00 | 70 | 1007.7 | |
| 20260508061027 | 5 | 0.0 | 0.0 | 0.00 | 0.23 | 0.00 | 70 | 1007.8 | |
| 20260508060527 | 5 | 0.0 | 0.0 | 0.00 | 0.23 | 0.00 | 68 | 1007.9 | |
| 20260508060027 | 5 | 0.0 | 0.0 | 0.00 | 0.23 | 0.00 | 69 | 1007.8 | |
| 20260508055526 | 5 | 187 | 0.0 | 1.6 | 0.00 | 0.23 | 0.00 | 67 | 1007.9 |
| 20260508055026 | 5 | 0.0 | 0.0 | 0.00 | 0.23 | 0.00 | 67 | 1008.0 | |
| 20260508054526 | 6 | 0.0 | 0.0 | 0.00 | 0.23 | 0.00 | 68 | 1007.9 | |
| 20260508054028 | 6 | 0.0 | 0.0 | 0.00 | 0.23 | 0.00 | 66 | 1008.0 | |
| 20260508053528 | 6 | 0.0 | 0.0 | 0.00 | 0.23 | 0.00 | 66 | 1007.9 | |
| 20260508053028 | 6 | 0.0 | 0.0 | 0.00 | 0.23 | 0.00 | 66 | 1007.9 | |
| 20260508052528 | 6 | 0.0 | 0.0 | 0.00 | 0.23 | 0.00 | 65 | 1008.0 | |
| 20260508052028 | 6 | 0.0 | 0.0 | 0.00 | 0.23 | 0.00 | 67 | 1008.1 | |
| 20260508051528 | 6 | 0.0 | 0.0 | 0.00 | 0.23 | 0.00 | 65 | 1008.0 | |
| 20260508051027 | 6 | 0.0 | 0.0 | 0.00 | 0.23 | 0.00 | 64 | 1008.2 | |
| 20260508050527 | 6 | 0.0 | 0.0 | 0.00 | 0.23 | 0.00 | 64 | 1008.3 | |
| 20260508050027 | 6 | 0.0 | 0.0 | 0.00 | 0.23 | 0.00 | 66 | 1008.3 | |
| 20260508045527 | 6 | 0.0 | 0.0 | 0.00 | 0.23 | 0.00 | 63 | 1008.2 | |
| 20260508045027 | 6 | 0.0 | 0.0 | 0.00 | 0.23 | 0.00 | 62 | 1008.2 | |
| 20260508044527 | 6 | 0.0 | 0.0 | 0.00 | 0.23 | 0.00 | 63 | 1008.3 | |
| 20260508044147 | 6 | 0.0 | 0.0 | 0.00 | 0.23 | 0.00 | 62 | 1008.3 | |
| 20260508043526 | 6 | 0.0 | 0.0 | 0.00 | 0.23 | 0.00 | 63 | 1008.2 | |
| 20260508043046 | 6 | 0.0 | 0.0 | 0.00 | 0.23 | 0.00 | 62 | 1008.2 | |
| 20260508042526 | 6 | 0.0 | 1.6 | 0.00 | 0.23 | 0.00 | 64 | 1008.3 | |
| 20260508042048 | 7 | 187 | 0.0 | 1.6 | 0.00 | 0.23 | 0.00 | 62 | 1008.2 |
| 20260508041608 | 7 | 0.0 | 0.0 | 0.00 | 0.23 | 0.00 | 61 | 1008.2 | |
| 20260508041028 | 7 | 0.0 | 0.0 | 0.00 | 0.23 | 0.00 | 61 | 1008.2 | |
| 20260508040528 | 7 | 0.0 | 0.0 | 0.00 | 0.25 | 0.00 | 63 | 1008.3 | |
| 20260508040028 | 7 | 192 | 0.0 | 1.6 | 0.00 | 0.25 | 0.00 | 61 | 1008.3 |
| 20260508035548 | 7 | 190 | 0.0 | 1.6 | 0.00 | 0.25 | 0.25 | 62 | 1008.3 |
| 20260508035027 | 7 | 0.0 | 1.6 | 0.00 | 0.25 | 0.25 | 62 | 1008.2 | |
| 20260508034527 | 7 | 202 | 0.0 | 4.8 | 0.00 | 0.25 | 0.25 | 62 | 1008.2 |
| 20260508034027 | 7 | 227 | 0.0 | 4.8 | 0.00 | 0.25 | 0.25 | 62 | 1008.2 |
| 20260508033527 | 7 | 0.0 | 0.0 | 0.00 | 0.25 | 0.25 | 63 | 1008.1 | |
| 20260508033047 | 7 | 0.0 | 0.0 | 0.00 | 0.25 | 0.25 | 62 | 1008.1 | |
| 20260508032526 | 7 | 0.0 | 0.0 | 0.00 | 0.25 | 0.25 | 62 | 1008.3 | |
| 20260508032026 | 7 | 225 | 0.0 | 1.6 | 0.00 | 0.25 | 0.25 | 61 | 1008.2 |
| 20260508031546 | 7 | 0.0 | 1.6 | 0.00 | 0.25 | 0.25 | 61 | 1008.3 | |
| 20260508031028 | 7 | 224 | 0.0 | 1.6 | 0.00 | 0.25 | 0.25 | 62 | 1008.2 |
| 20260508030528 | 7 | 219 | 0.0 | 1.6 | 0.00 | 0.25 | 0.25 | 62 | 1008.2 |
| 20260508030028 | 7 | 0.0 | 0.0 | 0.00 | 0.25 | 0.25 | 62 | 1008.2 | |
| 20260508025528 | 7 | 221 | 0.0 | 3.2 | 0.00 | 0.25 | 0.25 | 61 | 1008.2 |
| 20260508025028 | 7 | 0.0 | 0.0 | 0.00 | 0.25 | 0.25 | 64 | 1008.3 | |
| 20260508024548 | 7 | 0.0 | 0.0 | 0.00 | 0.25 | 0.25 | 64 | 1008.1 | |
| 20260508024027 | 7 | 0.0 | 0.0 | 0.00 | 0.25 | 0.25 | 62 | 1008.2 | |
| 20260508023527 | 8 | 0.0 | 0.0 | 0.00 | 0.25 | 0.25 | 60 | 1008.2 | |
| 20260508023029 | 8 | 0.0 | 0.0 | 0.00 | 0.25 | 0.25 | 61 | 1008.2 | |
| 20260508022529 | 8 | 0.0 | 0.0 | 0.00 | 0.25 | 0.25 | 61 | 1008.2 | |
| 20260508022029 | 8 | 0.0 | 0.0 | 0.00 | 0.25 | 0.25 | 61 | 1008.1 | |
| 20260508021528 | 8 | 0.0 | 1.6 | 0.00 | 0.25 | 0.25 | 61 | 1008.1 | |
| 20260508021028 | 8 | 231 | 0.0 | 3.2 | 0.00 | 0.25 | 0.25 | 61 | 1008.2 |
| 20260508020529 | 8 | 0.0 | 0.0 | 0.00 | 0.25 | 0.25 | 60 | 1008.3 | |
| 20260508020028 | 8 | 0.0 | 0.0 | 0.00 | 0.25 | 0.25 | 59 | 1008.3 | |
| 20260508015528 | 8 | 0.0 | 0.0 | 0.00 | 0.25 | 0.25 | 58 | 1008.2 | |
| 20260508015109 | 8 | 0.0 | 0.0 | 0.00 | 0.25 | 0.25 | 59 | 1008.2 | |
| 20260508014528 | 9 | 0.0 | 0.0 | 0.00 | 0.25 | 0.25 | 57 | 1008.1 | |
| 20260508014028 | 9 | 0.0 | 0.0 | 0.00 | 0.25 | 0.25 | 54 | 1007.9 | |
| 20260508013528 | 9 | 0.0 | 0.0 | 0.00 | 0.25 | 0.25 | 56 | 1007.9 | |
| 20260508013028 | 10 | 0.0 | 0.0 | 0.00 | 0.25 | 0.25 | 55 | 1007.9 | |
| 20260508012527 | 10 | 0.0 | 0.0 | 0.00 | 0.25 | 0.25 | 51 | 1007.8 | |
| 20260508012027 | 10 | 242 | 0.0 | 1.6 | 0.00 | 0.25 | 0.25 | 50 | 1007.8 |
| 20260508011527 | 10 | 0.0 | 0.0 | 0.00 | 0.25 | 0.25 | 48 | 1007.7 | |
| 20260508011029 | 10 | 0.0 | 0.0 | 0.00 | 0.25 | 0.25 | 50 | 1007.6 | |
| 20260508010529 | 10 | 226 | 0.0 | 3.2 | 0.00 | 0.25 | 0.25 | 48 | 1007.5 |
| 20260508010029 | 10 | 83 | 0.0 | 1.6 | 0.00 | 0.25 | 0.25 | 48 | 1007.5 |
| 20260508005528 | 11 | 0.0 | 1.6 | 0.00 | 0.25 | 0.25 | 48 | 1007.4 | |
| 20260508005028 | 11 | 79 | 0.0 | 1.6 | 0.00 | 0.25 | 0.25 | 48 | 1007.2 |
| 20260508004549 | 11 | 78 | 0.0 | 1.6 | 0.00 | 0.25 | 0.25 | 46 | 1007.1 |
| 20260508004028 | 11 | 73 | 0.0 | 1.6 | 0.00 | 0.25 | 0.25 | 44 | 1007.0 |
| 20260508003528 | 11 | 56 | 0.0 | 3.2 | 0.00 | 0.25 | 0.25 | 46 | 1007.0 |
| 20260508003028 | 11 | 0.0 | 0.0 | 0.00 | 0.25 | 0.25 | 44 | 1006.9 | |
| 20260508002549 | 11 | 36 | 0.0 | 1.6 | 0.00 | 0.25 | 0.25 | 43 | 1006.9 |
| 20260508002028 | 11 | 0.0 | 0.0 | 0.00 | 0.25 | 0.25 | 45 | 1006.8 | |
| 20260508001528 | 12 | 42 | 0.0 | 1.6 | 0.00 | 0.25 | 0.25 | 43 | 1006.7 |
| 20260508001048 | 12 | 42 | 0.0 | 1.6 | 0.00 | 0.25 | 0.25 | 42 | 1006.7 |
| 20260508000528 | 12 | 43 | 0.0 | 1.6 | 0.00 | 0.25 | 0.25 | 44 | 1006.7 |
| 20260508000028 | 12 | 43 | 0.0 | 1.6 | 0.00 | 0.25 | 0.25 | 40 | 1006.7 |
| 20260507235609 | 13 | 47 | 0.0 | 1.6 | 0.00 | 0.25 | 0.25 | 40 | 1006.6 |
| 20260507235028 | 13 | 47 | 0.0 | 1.6 | 0.00 | 0.25 | 0.25 | 39 | 1006.5 |
| 20260507234527 | 13 | 3 | 0.0 | 4.8 | 0.00 | 0.25 | 0.25 | 39 | 1006.4 |
| 20260507234028 | 13 | 357 | 0.0 | 3.2 | 0.00 | 0.25 | 0.25 | 38 | 1006.4 |
| 20260507233527 | 13 | 40 | 1.6 | 3.2 | 0.00 | 0.25 | 0.25 | 36 | 1006.4 |
| 20260507233047 | 13 | 50 | 1.6 | 3.2 | 0.00 | 0.25 | 0.25 | 36 | 1006.3 |
| 20260507232529 | 13 | 326 | 1.6 | 3.2 | 0.00 | 0.28 | 0.25 | 37 | 1006.3 |
| 20260507232029 | 14 | 20 | 1.6 | 3.2 | 0.00 | 0.28 | 0.25 | 35 | 1006.2 |
| 20260507231529 | 14 | 8 | 0.0 | 3.2 | 0.00 | 0.30 | 0.25 | 36 | 1006.2 |
| 20260507231028 | 14 | 4 | 1.6 | 4.8 | 0.00 | 0.30 | 0.25 | 34 | 1006.1 |
| 20260507230529 | 15 | 33 | 0.0 | 3.2 | 0.00 | 0.33 | 0.25 | 34 | 1006.1 |
| 20260507230028 | 15 | 28 | 1.6 | 11.3 | 0.00 | 0.33 | 0.25 | 32 | 1006.1 |
| 20260507225528 | 15 | 19 | 3.2 | 9.7 | 0.00 | 0.33 | 0.25 | 33 | 1006.0 |
| 20260507225048 | 15 | 333 | 3.2 | 4.8 | 0.00 | 0.33 | 0.25 | 32 | 1006.0 |
| 20260507224528 | 15 | 12 | 1.6 | 9.7 | 0.00 | 0.33 | 0.25 | 33 | 1006.0 |
| 20260507224028 | 15 | 31 | 1.6 | 6.4 | 0.00 | 0.33 | 0.25 | 34 | 1005.8 |
| 20260507223527 | 15 | 5 | 1.6 | 6.4 | 0.00 | 0.33 | 0.25 | 33 | 1005.8 |
| 20260507223027 | 15 | 358 | 1.6 | 3.2 | 0.00 | 0.33 | 0.25 | 33 | 1005.8 |
| 20260507222607 | 15 | 60 | 1.6 | 4.8 | 0.00 | 0.33 | 0.25 | 31 | 1005.7 |
| 20260507222027 | 15 | 51 | 1.6 | 4.8 | 0.00 | 0.33 | 0.25 | 32 | 1005.8 |
| 20260507221527 | 15 | 13 | 3.2 | 9.7 | 0.00 | 0.33 | 0.25 | 31 | 1005.7 |
| 20260507221029 | 15 | 336 | 1.6 | 4.8 | 0.00 | 0.33 | 0.25 | 31 | 1005.5 |
| 20260507220549 | 15 | 7 | 3.2 | 11.3 | 0.00 | 0.33 | 0.25 | 31 | 1005.5 |
| 20260507220029 | 15 | 358 | 3.2 | 9.7 | 0.00 | 0.33 | 0.25 | 31 | 1005.7 |
| 20260507215528 | 15 | 359 | 3.2 | 14.5 | 0.00 | 0.33 | 0.25 | 31 | 1005.5 |
| 20260507215029 | 16 | 3 | 3.2 | 9.7 | 0.00 | 0.33 | 0.25 | 31 | 1005.5 |
| 20260507214528 | 16 | 10 | 1.6 | 6.4 | 0.00 | 0.36 | 0.25 | 31 | 1005.5 |
| 20260507214028 | 16 | 14 | 3.2 | 6.4 | 0.00 | 0.36 | 0.25 | 31 | 1005.3 |
| 20260507213528 | 16 | 15 | 3.2 | 11.3 | 0.00 | 0.36 | 0.25 | 30 | 1005.4 |
| 20260507213028 | 16 | 11 | 3.2 | 9.7 | 0.00 | 0.36 | 0.25 | 30 | 1005.3 |
| 20260507212528 | 16 | 348 | 3.2 | 6.4 | 0.00 | 0.36 | 0.25 | 30 | 1005.2 |
| 20260507212028 | 16 | 334 | 1.6 | 11.3 | 0.00 | 0.36 | 0.25 | 33 | 1005.3 |
| 20260507211527 | 16 | 13 | 3.2 | 6.4 | 0.00 | 0.36 | 0.25 | 30 | 1005.2 |
| 20260507211027 | 16 | 15 | 4.8 | 9.7 | 0.00 | 0.36 | 0.25 | 30 | 1005.3 |
| 20260507210527 | 16 | 326 | 1.6 | 11.3 | 0.00 | 0.36 | 0.25 | 30 | 1005.1 |
| 20260507210108 | 16 | 7 | 3.2 | 11.3 | 0.00 | 0.36 | 0.25 | 30 | 1005.3 |
| 20260507205529 | 16 | 350 | 4.8 | 16.1 | 0.00 | 0.36 | 0.25 | 30 | 1005.1 |
| 20260507205029 | 16 | 358 | 6.4 | 16.1 | 0.00 | 0.36 | 0.25 | 30 | 1005.1 |
| 20260507204528 | 16 | 13 | 3.2 | 6.4 | 0.00 | 0.36 | 0.25 | 30 | 1005.1 |
| 20260507204029 | 16 | 355 | 4.8 | 12.9 | 0.00 | 0.36 | 0.25 | 31 | 1005.2 |
| 20260507203528 | 16 | 320 | 1.6 | 4.8 | 0.00 | 0.38 | 0.25 | 32 | 1005.1 |
| 20260507203048 | 17 | 13 | 3.2 | 6.4 | 0.00 | 0.38 | 0.25 | 32 | 1005.2 |
| 20260507202528 | 17 | 360 | 3.2 | 6.4 | 0.00 | 0.38 | 0.25 | 31 | 1005.1 |
| 20260507202028 | 17 | 37 | 1.6 | 4.8 | 0.00 | 0.38 | 0.25 | 32 | 1005.1 |
| 20260507201528 | 17 | 3 | 3.2 | 11.3 | 0.00 | 0.38 | 0.25 | 31 | 1005.1 |
| 20260507201027 | 17 | 4 | 3.2 | 6.4 | 0.00 | 0.38 | 0.25 | 33 | 1005.1 |
| 20260507200528 | 17 | 358 | 3.2 | 12.9 | 0.00 | 0.38 | 0.25 | 30 | 1005.2 |
| 20260507200029 | 17 | 342 | 3.2 | 12.9 | 0.00 | 0.38 | 0.25 | 31 | 1005.2 |
| 20260507195527 | 17 | 8 | 3.2 | 9.7 | 0.00 | 0.38 | 0.25 | 31 | 1005.3 |
| 20260507195028 | 17 | 333 | 3.2 | 11.3 | 0.00 | 0.38 | 0.25 | 31 | 1005.4 |
| 20260507194527 | 17 | 18 | 3.2 | 9.7 | 0.00 | 0.41 | 0.25 | 29 | 1005.4 |
| 20260507194029 | 17 | 353 | 3.2 | 9.7 | 0.00 | 0.41 | 0.25 | 30 | 1005.5 |
| 20260507193528 | 17 | 312 | 3.2 | 9.7 | 0.00 | 0.43 | 0.25 | 30 | 1005.6 |
| 20260507193054 | 17 | 25 | 1.6 | 9.7 | 0.00 | 0.43 | 0.25 | 30 | 1005.6 |
| 20260507192528 | 17 | 14 | 3.2 | 6.4 | 0.00 | 0.43 | 0.25 | 30 | 1005.6 |
| 20260507192028 | 17 | 360 | 3.2 | 6.4 | 0.00 | 0.46 | 0.25 | 29 | 1005.6 |
| 20260507191609 | 17 | 8 | 1.6 | 6.4 | 0.00 | 0.46 | 0.25 | 28 | 1005.7 |
| 20260507191028 | 17 | 346 | 1.6 | 4.8 | 0.00 | 0.48 | 0.25 | 28 | 1005.7 |
| 20260507190548 | 17 | 291 | 4.8 | 12.9 | 0.00 | 0.48 | 0.25 | 31 | 1005.6 |
| 20260507190048 | 17 | 359 | 3.2 | 11.3 | 0.00 | 0.48 | 0.25 | 30 | 1005.8 |
| 20260507185527 | 17 | 6 | 3.2 | 11.3 | 0.00 | 0.48 | 0.25 | 29 | 1005.9 |
| 20260507185029 | 17 | 26 | 4.8 | 11.3 | 0.00 | 0.48 | 0.25 | 28 | 1005.8 |
| 20260507184529 | 17 | 347 | 1.6 | 4.8 | 0.00 | 0.48 | 0.25 | 28 | 1005.9 |
| 20260507184029 | 17 | 359 | 3.2 | 6.4 | 0.00 | 0.48 | 0.25 | 29 | 1005.9 |
| 20260507183529 | 17 | 265 | 3.2 | 14.5 | 0.00 | 0.48 | 0.25 | 30 | 1005.9 |
| 20260507183028 | 17 | 27 | 1.6 | 4.8 | 0.00 | 0.48 | 0.25 | 29 | 1006.0 |
| 20260507182609 | 17 | 259 | 3.2 | 14.5 | 0.00 | 0.48 | 0.25 | 29 | 1005.9 |
| 20260507182029 | 17 | 339 | 3.2 | 11.3 | 0.00 | 0.48 | 0.25 | 29 | 1006.0 |
| 20260507181548 | 17 | 3 | 4.8 | 12.9 | 0.00 | 0.48 | 0.25 | 29 | 1006.1 |
| 20260507181029 | 18 | 263 | 3.2 | 11.3 | 0.00 | 0.48 | 0.25 | 31 | 1006.1 |
| 20260507180528 | 17 | 268 | 1.6 | 4.8 | 0.00 | 0.48 | 0.25 | 36 | 1006.2 |
| 20260507180028 | 17 | 12 | 3.2 | 9.7 | 0.00 | 0.48 | 0.25 | 33 | 1006.2 |
| 20260507175528 | 17 | 326 | 4.8 | 17.7 | 0.00 | 0.48 | 0.25 | 35 | 1006.2 |
| 20260507175028 | 17 | 356 | 3.2 | 6.4 | 0.00 | 0.48 | 0.25 | 37 | 1006.3 |
| 20260507174527 | 17 | 18 | 1.6 | 9.7 | 0.00 | 0.48 | 0.25 | 34 | 1006.2 |
| 20260507174028 | 17 | 354 | 3.2 | 9.7 | 0.00 | 0.48 | 0.25 | 35 | 1006.2 |
| 20260507173527 | 17 | 330 | 3.2 | 9.7 | 0.00 | 0.48 | 0.25 | 34 | 1006.1 |
| 20260507173047 | 17 | 326 | 3.2 | 6.4 | 0.00 | 0.48 | 0.25 | 36 | 1006.2 |
| 20260507172547 | 17 | 314 | 3.2 | 9.7 | 0.00 | 0.48 | 0.25 | 37 | 1006.1 |
| 20260507172027 | 17 | 330 | 3.2 | 9.7 | 0.00 | 0.48 | 0.25 | 37 | 1006.3 |
| 20260507171529 | 17 | 18 | 3.2 | 9.7 | 0.00 | 0.48 | 0.25 | 36 | 1006.3 |
| 20260507171029 | 17 | 8 | 3.2 | 9.7 | 0.00 | 0.48 | 0.25 | 38 | 1006.4 |
| 20260507170529 | 17 | 2 | 3.2 | 9.7 | 0.00 | 0.48 | 0.25 | 37 | 1006.5 |
| 20260507170028 | 17 | 348 | 3.2 | 9.7 | 0.00 | 0.48 | 0.25 | 39 | 1006.5 |
| 20260507165528 | 16 | 318 | 3.2 | 9.7 | 0.00 | 0.48 | 0.25 | 40 | 1006.6 |
| 20260507165028 | 16 | 327 | 3.2 | 9.7 | 0.00 | 0.48 | 0.25 | 43 | 1006.5 |
| 20260507164528 | 16 | 8 | 3.2 | 11.3 | 0.00 | 0.48 | 0.25 | 44 | 1006.5 |
| 20260507164028 | 16 | 358 | 4.8 | 11.3 | 0.00 | 0.48 | 0.25 | 42 | 1006.6 |
| 20260507163528 | 16 | 9 | 3.2 | 6.4 | 0.00 | 0.48 | 0.25 | 45 | 1006.8 |
| 20260507163028 | 16 | 12 | 3.2 | 6.4 | 0.00 | 0.48 | 0.25 | 44 | 1006.9 |
| 20260507162548 | 16 | 354 | 3.2 | 9.7 | 0.00 | 0.48 | 0.25 | 46 | 1006.8 |
| 20260507162027 | 16 | 9 | 4.8 | 9.7 | 0.00 | 0.48 | 0.25 | 46 | 1006.8 |
| 20260507161527 | 16 | 11 | 3.2 | 6.4 | 0.00 | 0.48 | 0.25 | 51 | 1006.9 |
| 20260507161027 | 16 | 349 | 3.2 | 6.4 | 0.00 | 0.48 | 0.25 | 49 | 1006.9 |
| 20260507160607 | 16 | 296 | 4.8 | 22.5 | 0.00 | 0.48 | 0.25 | 52 | 1007.0 |
| 20260507160027 | 15 | 17 | 1.6 | 6.4 | 0.00 | 0.48 | 0.25 | 51 | 1007.1 |
| 20260507155529 | 16 | 328 | 3.2 | 6.4 | 0.00 | 0.48 | 0.25 | 52 | 1007.1 |
| 20260507155029 | 16 | 344 | 3.2 | 6.4 | 0.00 | 0.48 | 0.25 | 53 | 1007.0 |
| 20260507154528 | 15 | 34 | 3.2 | 11.3 | 0.00 | 0.48 | 0.25 | 54 | 1007.1 |
| 20260507154028 | 15 | 11 | 4.8 | 11.3 | 0.00 | 0.48 | 0.25 | 54 | 1007.1 |
| 20260507153548 | 14 | 25 | 3.2 | 6.4 | 0.00 | 0.48 | 0.25 | 57 | 1007.2 |
| 20260507153028 | 14 | 42 | 1.6 | 4.8 | 0.00 | 0.48 | 0.25 | 56 | 1007.2 |
| 20260507152529 | 15 | 24 | 3.2 | 9.7 | 0.00 | 0.48 | 0.25 | 55 | 1007.2 |
| 20260507152029 | 15 | 20 | 3.2 | 9.7 | 0.00 | 0.48 | 0.25 | 57 | 1007.3 |
| 20260507151548 | 14 | 359 | 1.6 | 6.4 | 0.00 | 0.48 | 0.25 | 58 | 1007.4 |
| 20260507151033 | 14 | 28 | 1.6 | 4.8 | 0.00 | 0.48 | 0.25 | 56 | 1007.4 |
| 20260507150528 | 15 | 17 | 3.2 | 9.7 | 0.00 | 0.48 | 0.25 | 55 | 1007.4 |
| 20260507150028 | 15 | 29 | 3.2 | 6.4 | 0.00 | 0.48 | 0.25 | 55 | 1007.5 |
| 20260507145529 | 15 | 25 | 1.6 | 4.8 | 0.00 | 0.48 | 0.25 | 54 | 1007.6 |
| 20260507145033 | 15 | 301 | 3.2 | 9.7 | 0.00 | 0.48 | 0.25 | 59 | 1007.6 |
| 20260507144528 | 14 | 16 | 1.6 | 4.8 | 0.00 | 0.48 | 0.25 | 58 | 1007.7 |
| 20260507144028 | 13 | 20 | 1.6 | 4.8 | 0.00 | 0.48 | 0.25 | 59 | 1007.8 |
| 20260507143528 | 14 | 12 | 3.2 | 6.4 | 0.00 | 0.48 | 0.25 | 57 | 1007.8 |
| 20260507143028 | 14 | 20 | 3.2 | 12.9 | 0.00 | 0.48 | 0.25 | 59 | 1007.8 |
| 20260507142528 | 14 | 47 | 3.2 | 12.9 | 0.00 | 0.48 | 0.25 | 57 | 1007.9 |
| 20260507142028 | 14 | 39 | 1.6 | 4.8 | 0.00 | 0.48 | 0.25 | 56 | 1007.9 |
| 20260507141548 | 14 | 23 | 1.6 | 3.2 | 0.00 | 0.48 | 0.25 | 60 | 1007.9 |
| 20260507141027 | 14 | 5 | 1.6 | 4.8 | 0.00 | 0.48 | 0.25 | 58 | 1007.9 |
| 20260507140528 | 13 | 321 | 1.6 | 4.8 | 0.00 | 0.48 | 0.25 | 58 | 1007.8 |
| 20260507140028 | 13 | 22 | 1.6 | 4.8 | 0.00 | 0.48 | 0.25 | 59 | 1007.8 |
| 20260507135527 | 13 | 36 | 1.6 | 4.8 | 0.00 | 0.48 | 0.25 | 58 | 1007.8 |
| 20260507135027 | 13 | 25 | 3.2 | 4.8 | 0.00 | 0.48 | 0.25 | 59 | 1007.7 |
| 20260507134527 | 13 | 19 | 1.6 | 4.8 | 0.00 | 0.48 | 0.25 | 60 | 1007.8 |
| 20260507134027 | 13 | 348 | 3.2 | 4.8 | 0.00 | 0.48 | 0.25 | 61 | 1007.8 |
| 20260507133527 | 13 | 359 | 3.2 | 9.7 | 0.00 | 0.48 | 0.25 | 61 | 1007.9 |
| 20260507133029 | 12 | 324 | 3.2 | 6.4 | 0.00 | 0.48 | 0.25 | 62 | 1007.9 |
| 20260507132529 | 12 | 348 | 3.2 | 6.4 | 0.00 | 0.48 | 0.25 | 62 | 1008.0 |
| 20260507132028 | 12 | 22 | 1.6 | 4.8 | 0.00 | 0.48 | 0.25 | 63 | 1008.0 |
| 20260507131528 | 12 | 321 | 3.2 | 6.4 | 0.00 | 0.48 | 0.25 | 68 | 1008.1 |
| 20260507131029 | 12 | 8 | 3.2 | 4.8 | 0.00 | 0.48 | 0.25 | 70 | 1008.1 |
| 20260507130528 | 12 | 33 | 1.6 | 4.8 | 0.00 | 0.48 | 0.25 | 74 | 1008.0 |
| 20260507130028 | 12 | 20 | 1.6 | 4.8 | 0.00 | 0.48 | 0.25 | 76 | 1008.1 |
| 20260507125528 | 12 | 14 | 1.6 | 4.8 | 0.00 | 0.48 | 0.25 | 80 | 1008.1 |
| 20260507125108 | 11 | 325 | 1.6 | 3.2 | 0.00 | 0.48 | 0.25 | 83 | 1008.3 |
| 20260507124527 | 11 | 312 | 1.6 | 3.2 | 0.00 | 0.48 | 0.25 | 85 | 1008.3 |
| 20260507124048 | 11 | 358 | 1.6 | 3.2 | 0.00 | 0.48 | 0.25 | 87 | 1008.3 |
| 20260507123527 | 10 | 353 | 1.6 | 4.8 | 0.00 | 0.48 | 0.25 | 87 | 1008.4 |
| 20260507123027 | 10 | 353 | 0.0 | 3.2 | 0.00 | 0.48 | 0.25 | 88 | 1008.2 |
| 20260507122527 | 10 | 353 | 0.0 | 3.2 | 0.00 | 0.48 | 0.25 | 88 | 1008.2 |
| 20260507122027 | 10 | 353 | 1.6 | 3.2 | 0.00 | 0.48 | 0.25 | 90 | 1008.2 |
| 20260507121529 | 10 | 329 | 0.0 | 1.6 | 0.00 | 0.48 | 0.25 | 90 | 1008.3 |
| 20260507121049 | 10 | 27 | 0.0 | 3.2 | 0.00 | 0.48 | 0.25 | 91 | 1008.2 |
| 20260507120528 | 9 | 27 | 0.0 | 3.2 | 0.00 | 0.48 | 0.25 | 92 | 1008.1 |
| 20260507120028 | 9 | 26 | 0.0 | 3.2 | 0.00 | 0.48 | 0.25 | 93 | 1008.1 |
| 20260507115528 | 9 | 0.0 | 0.0 | 0.00 | 0.48 | 0.25 | 94 | 1008.1 | |
| 20260507115028 | 9 | 293 | 0.0 | 1.6 | 0.00 | 0.48 | 0.25 | 95 | 1008.1 |
| 20260507114548 | 9 | 0.0 | 1.6 | 0.00 | 0.48 | 0.25 | 95 | 1008.1 | |
| 20260507114028 | 8 | 293 | 0.0 | 1.6 | 0.00 | 0.48 | 0.25 | 95 | 1008.0 |
| 20260507113528 | 8 | 0.0 | 1.6 | 0.00 | 0.48 | 0.25 | 96 | 1008.0 | |
| 20260507113027 | 8 | 282 | 0.0 | 1.6 | 0.00 | 0.48 | 0.25 | 97 | 1008.1 |
| 20260507112528 | 8 | 0.0 | 0.0 | 0.00 | 0.48 | 0.25 | 97 | 1008.1 | |
| 20260507112027 | 8 | 0.0 | 0.0 | 0.00 | 0.48 | 0.25 | 97 | 1008.0 | |
| 20260507111528 | 8 | 0.0 | 0.0 | 0.00 | 0.48 | 0.25 | 97 | 1007.9 | |
| 20260507111047 | 8 | 0.0 | 0.0 | 0.00 | 0.48 | 0.25 | 97 | 1008.0 | |
| 20260507110527 | 8 | 0.0 | 0.0 | 0.00 | 0.48 | 0.25 | 97 | 1007.8 | |
| 20260507110027 | 8 | 0.0 | 0.0 | 0.00 | 0.48 | 0.25 | 97 | 1007.9 | |
| 20260507105527 | 8 | 0.0 | 0.0 | 0.00 | 0.48 | 0.25 | 97 | 1008.0 | |
| 20260507105029 | 8 | 0.0 | 0.0 | 0.03 | 0.48 | 0.25 | 97 | 1008.1 | |
| 20260507104528 | 8 | 0.0 | 0.0 | 0.03 | 0.48 | 0.25 | 97 | 1008.2 | |
| 20260507104028 | 8 | 233 | 0.0 | 1.6 | 0.05 | 0.48 | 0.25 | 96 | 1008.2 |
| 20260507103528 | 8 | 0.0 | 1.6 | 0.05 | 0.48 | 0.25 | 96 | 1008.0 | |
| 20260507103028 | 8 | 0.0 | 0.0 | 0.05 | 0.48 | 0.25 | 96 | 1007.7 | |
| 20260507102548 | 8 | 0.0 | 1.6 | 0.05 | 0.48 | 0.25 | 96 | 1007.6 | |
| 20260507102108 | 8 | 0.0 | 0.0 | 0.05 | 0.48 | 0.25 | 96 | 1007.4 | |
| 20260507101528 | 8 | 0.0 | 0.0 | 0.10 | 0.48 | 0.25 | 96 | 1007.2 | |
| 20260507101048 | 8 | 0.0 | 0.0 | 0.13 | 0.48 | 0.25 | 96 | 1007.3 | |
| 20260507100528 | 8 | 37 | 0.0 | 1.6 | 0.13 | 0.46 | 0.23 | 96 | 1007.4 |
| 20260507100028 | 8 | 0.0 | 0.0 | 0.13 | 0.46 | 0.23 | 96 | 1007.3 | |
| 20260507095528 | 8 | 0.0 | 0.0 | 0.13 | 0.46 | 0.23 | 95 | 1007.3 | |
| 20260507095027 | 8 | 0.0 | 0.0 | 0.15 | 0.46 | 0.23 | 95 | 1007.2 | |
| 20260507094527 | 8 | 37 | 0.0 | 1.6 | 0.13 | 0.43 | 0.20 | 96 | 1007.2 |
| 20260507094027 | 9 | 52 | 0.0 | 3.2 | 0.13 | 0.43 | 0.20 | 95 | 1007.1 |
| 20260507093527 | 9 | 94 | 0.0 | 3.2 | 0.13 | 0.43 | 0.20 | 95 | 1007.3 |
| 20260507093029 | 9 | 136 | 0.0 | 1.6 | 0.13 | 0.43 | 0.20 | 95 | 1007.5 |
| 20260507092527 | 9 | 137 | 0.0 | 1.6 | 0.13 | 0.43 | 0.20 | 96 | 1007.4 |
| 20260507092029 | 9 | 0.0 | 1.6 | 0.13 | 0.43 | 0.20 | 95 | 1007.2 | |
| 20260507091528 | 9 | 136 | 0.0 | 1.6 | 0.10 | 0.38 | 0.15 | 95 | 1007.3 |